Athens, TX

6:29 PM CDT on August 31, 2016 (GMT -0500)
Athens

Weather History for KF44 - January, 2013

Change the Weather History Date:

Friday, January 11, 2013

  Actual Average (KTYR) Record (KTYR)
Temperature  
Mean Temperature 57 °F 46 °F  
Max Temperature 73 °F 56 °F 80 °F (1995)
Min Temperature 41 °F 37 °F 3 °F (1982)
Degree Days  
Heating Degree Days 8 19  
Month to date heating degree days 209  
Since 1 July heating degree days 1110  
Cooling Degree Days 0 0  
Month to date cooling degree days 0  
Year to date cooling degree days 0  
Growing Degree Days 7 (Base 50)    
Moisture  
Dew Point 48 °F    
Average Humidity 73    
Maximum Humidity 100    
Minimum Humidity 38    
Precipitation  
Precipitation 0.00 in 0.09 in 1.67 in (1922)
Month to date precipitation 1.16  
Year to date precipitation 1.16  
Snow  
Snow 0.00 in - - ()
Month to date snowfall  
Since 1 July snowfall  
Snow Depth -    
Sea Level Pressure  
Sea Level Pressure 29.91 in    
Wind  
Wind Speed 5 mph (South)    
Max Wind Speed 16 mph    
Max Gust Speed 24 mph    
Visibility 10 miles    
Events      
T = Trace of Precipitation, MM = Missing Value Source: NWS Daily Summary

Daily Weather History Graph

Daily Weather History Graph

Search for Another Location

Airport or City:

Trip Planner

Search our weather history database for the weather conditions in past years. The results will help you decide how hot, cold, wet, or windy it might be!

Date:

Astronomy

Jan. 11, 2013 Rise Set
Actual Time 7:25 AM CST 5:38 PM CST
Civil Twilight 6:58 AM CST 6:04 PM CST
Nautical Twilight 6:28 AM CST 6:34 PM CST
Astronomical Twilight 5:58 AM CST 7:04 PM CST
Moon 7:01 AM CST (1/11) 5:53 PM CST (1/11)
Length of Visible Light 11h 06m
Length of Day
10h 13m
Waning Crescent, 0% of the Moon is Illuminated
Jan 11
Waning Crescent
Jan 11
New
Jan 18
First Quarter
Jan 26
Full
Feb 3
Last Quarter

Hourly Weather History & Observations

Time (CST) Temp. Windchill Dew Point Humidity Pressure Visibility Wind Dir Wind Speed Gust Speed Precip Events Conditions
12:15 AM 42.8 °F - 41.0 °F 93% 29.99 in 10.0 mi Calm Calm - N/A   Clear
12:35 AM 42.8 °F - 41.0 °F 93% 29.99 in 10.0 mi Calm Calm - N/A   Clear
12:55 AM 42.8 °F - 41.0 °F 93% 29.99 in 10.0 mi Calm Calm - N/A   Clear
1:15 AM 41.0 °F - 41.0 °F 100% 29.99 in 10.0 mi Calm Calm - N/A   Clear
1:35 AM 41.0 °F - 41.0 °F 100% 29.99 in 10.0 mi Calm Calm - N/A   Clear
1:55 AM 41.0 °F - 41.0 °F 100% 29.99 in 10.0 mi Calm Calm - N/A   Clear
2:15 AM 46.4 °F 42.9 °F 42.8 °F 87% 29.99 in 10.0 mi South 6.9 mph - N/A   Clear
2:35 AM 46.4 °F 44.3 °F 42.8 °F 87% 30.00 in 10.0 mi South 4.6 mph - N/A   Clear
2:55 AM 46.4 °F - 42.8 °F 87% 29.99 in 10.0 mi Calm Calm - N/A   Clear
3:15 AM 46.4 °F - 42.8 °F 87% 29.99 in 10.0 mi Calm Calm - N/A   Clear
3:35 AM 46.4 °F - 42.8 °F 87% 29.99 in 10.0 mi Calm Calm - N/A   Clear
3:55 AM 46.4 °F 45.2 °F 42.8 °F 87% 29.98 in 10.0 mi South 3.5 mph - N/A   Clear
4:15 AM 46.4 °F 44.3 °F 42.8 °F 87% 29.97 in 10.0 mi South 4.6 mph - N/A   Clear
4:35 AM 44.6 °F 43.1 °F 42.8 °F 93% 29.96 in 10.0 mi South 3.5 mph - N/A   Clear
4:55 AM 46.4 °F 44.3 °F 42.8 °F 87% 29.96 in 10.0 mi South 4.6 mph - N/A   Clear
5:15 AM 44.6 °F 42.2 °F 42.8 °F 93% 29.95 in 10.0 mi South 4.6 mph - N/A   Clear
5:35 AM 46.4 °F 44.3 °F 42.8 °F 87% 29.95 in 10.0 mi South 4.6 mph - N/A   Clear
5:55 AM 44.6 °F 42.2 °F 42.8 °F 93% 29.95 in 10.0 mi South 4.6 mph - N/A   Clear
6:15 AM 44.6 °F 43.1 °F 42.8 °F 93% 29.95 in 10.0 mi South 3.5 mph - N/A   Clear
6:35 AM 44.6 °F - 42.8 °F 93% 29.95 in 10.0 mi Calm Calm - N/A   Clear
6:55 AM 44.6 °F - 42.8 °F 93% 29.96 in 10.0 mi Calm Calm - N/A   Clear
7:15 AM 44.6 °F 43.1 °F 42.8 °F 93% 29.96 in 10.0 mi SSE 3.5 mph - N/A   Clear
7:35 AM 44.6 °F 42.2 °F 42.8 °F 93% 29.96 in 10.0 mi SSE 4.6 mph - N/A   Clear
7:55 AM 46.4 °F 45.2 °F 44.6 °F 93% 29.97 in 10.0 mi SSE 3.5 mph - N/A   Clear
8:15 AM 46.4 °F - 44.6 °F 93% 29.97 in 10.0 mi Calm Calm - N/A   Clear
8:35 AM 48.2 °F - 44.6 °F 87% 29.97 in 10.0 mi South 4.6 mph - N/A   Clear
8:55 AM 50.0 °F - 44.6 °F 82% 29.97 in 10.0 mi South 4.6 mph - N/A   Clear
9:15 AM 51.8 °F - 44.6 °F 76% 29.97 in 10.0 mi South 4.6 mph - N/A   Clear
9:35 AM 51.8 °F - 46.4 °F 82% 29.96 in 10.0 mi South 8.1 mph - N/A   Clear
9:55 AM 53.6 °F - 46.4 °F 77% 29.96 in 10.0 mi South 5.8 mph - N/A   Clear
10:15 AM 55.4 °F - 46.4 °F 72% 29.96 in 10.0 mi South 5.8 mph - N/A   Clear
10:35 AM 59.0 °F - 46.4 °F 63% 29.96 in 10.0 mi South 6.9 mph - N/A   Clear
10:55 AM 60.8 °F - 46.4 °F 59% 29.95 in 10.0 mi South 8.1 mph - N/A   Clear
11:15 AM 62.6 °F - 48.2 °F 59% 29.94 in 10.0 mi SSW 6.9 mph - N/A   Clear
11:35 AM 62.6 °F - 46.4 °F 55% 29.93 in 10.0 mi South 10.4 mph - N/A   Clear
11:55 AM 64.4 °F - 46.4 °F 52% 29.92 in 10.0 mi South 10.4 mph - N/A   Clear
12:15 PM 64.4 °F - 46.4 °F 52% 29.91 in 10.0 mi South 8.1 mph - N/A   Clear
12:35 PM 68.0 °F - 46.4 °F 46% 29.90 in 10.0 mi South 11.5 mph 16.1 mph N/A   Clear
12:55 PM 69.8 °F - 46.4 °F 43% 29.88 in 10.0 mi South 8.1 mph 18.4 mph N/A   Clear
1:15 PM 69.8 °F - 46.4 °F 43% 29.87 in 10.0 mi South 13.8 mph 18.4 mph N/A   Clear
1:35 PM 69.8 °F - 46.4 °F 43% 29.86 in 10.0 mi SSW 10.4 mph 20.7 mph N/A   Clear
1:55 PM 69.8 °F - 44.6 °F 40% 29.84 in 10.0 mi South 16.1 mph 20.7 mph N/A   Clear
2:15 PM 69.8 °F - 46.4 °F 43% 29.84 in 10.0 mi SSE 11.5 mph - N/A   Clear
2:35 PM 69.8 °F - 46.4 °F 43% 29.82 in 10.0 mi SSE 11.5 mph 16.1 mph N/A   Clear
2:55 PM 73.4 °F - 46.4 °F 38% 29.83 in 10.0 mi South 9.2 mph 18.4 mph N/A   Clear
3:15 PM 71.6 °F - 46.4 °F 41% 29.84 in 10.0 mi South 15.0 mph 23.0 mph N/A   Clear
3:35 PM 71.6 °F - 50.0 °F 46% 29.83 in 10.0 mi South 11.5 mph 18.4 mph N/A   Clear
3:55 PM 71.6 °F - 51.8 °F 50% 29.83 in 10.0 mi South 13.8 mph 18.4 mph N/A   Clear
4:15 PM 71.6 °F - 51.8 °F 50% 29.83 in 10.0 mi SSE 13.8 mph 24.2 mph N/A   Clear
4:35 PM 69.8 °F - 51.8 °F 53% 29.83 in 10.0 mi SSE 9.2 mph - N/A   Clear
4:55 PM 69.8 °F - 51.8 °F 53% 29.82 in 10.0 mi South 8.1 mph - N/A   Clear
5:15 PM 68.0 °F - 53.6 °F 60% 29.82 in 10.0 mi SSE 11.5 mph - N/A   Clear
5:35 PM 68.0 °F - 55.4 °F 64% 29.82 in 10.0 mi South 10.4 mph 18.4 mph N/A   Mostly Cloudy
5:55 PM 68.0 °F - 53.6 °F 60% 29.82 in 10.0 mi South 10.4 mph 16.1 mph N/A   Overcast
6:15 PM 68.0 °F - 53.6 °F 60% 29.82 in 10.0 mi South 11.5 mph - N/A   Overcast
6:35 PM 68.0 °F - 53.6 °F 60% 29.83 in 10.0 mi South 10.4 mph - N/A   Overcast
6:55 PM 68.0 °F - 53.6 °F 60% 29.84 in 10.0 mi SSE 9.2 mph - N/A   Overcast
7:15 PM 66.2 °F - 53.6 °F 64% 29.84 in 10.0 mi South 8.1 mph - N/A   Overcast
7:35 PM 66.2 °F - 55.4 °F 68% 29.84 in 10.0 mi SSE 8.1 mph - N/A   Overcast
7:55 PM 64.4 °F - 53.6 °F 68% 29.84 in 10.0 mi SSE 8.1 mph - N/A   Overcast
8:15 PM 64.4 °F - 53.6 °F 68% 29.84 in 10.0 mi SSE 9.2 mph - N/A   Overcast
8:35 PM 62.6 °F - 53.6 °F 72% 29.85 in 10.0 mi South 6.9 mph - N/A   Mostly Cloudy
8:55 PM 62.6 °F - 53.6 °F 72% 29.86 in 10.0 mi South 8.1 mph - N/A   Clear
9:15 PM 62.6 °F - 53.6 °F 72% 29.86 in 10.0 mi South 8.1 mph - N/A   Scattered Clouds
9:35 PM 62.6 °F - 55.4 °F 77% 29.86 in 10.0 mi South 9.2 mph - N/A   Scattered Clouds
9:55 PM 62.6 °F - 55.4 °F 77% 29.86 in 10.0 mi South 8.1 mph - N/A   Mostly Cloudy
10:15 PM 62.6 °F - 55.4 °F 77% 29.86 in 10.0 mi South 8.1 mph - N/A   Mostly Cloudy
10:35 PM 62.6 °F - 55.4 °F 77% 29.86 in 10.0 mi South 11.5 mph - N/A   Overcast
10:55 PM 64.4 °F - 57.2 °F 77% 29.87 in 10.0 mi South 9.2 mph - N/A   Overcast
11:15 PM 62.6 °F - 59.0 °F 88% 29.87 in 10.0 mi South 8.1 mph - N/A   Overcast
11:35 PM 62.6 °F - 59.0 °F 88% 29.88 in 10.0 mi South 10.4 mph - N/A   Overcast